Weather History for CWZG - February, 2014

Change the Weather History Date:

Friday, February 21, 2014

  Actual Average Record
Temperature  
Mean Temperature 13 °F -  
Max Temperature 20 °F - - ()
Min Temperature 6 °F - - ()
Degree Days  
Heating Degree Days 52    
Moisture  
Dew Point 8 °F    
Average Humidity 78    
Maximum Humidity 95    
Minimum Humidity 61    
Precipitation  
Precipitation 0.14 in - - ()
Sea Level Pressure  
Sea Level Pressure 30.03 in    
Wind  
Wind Speed 3 mph ()    
Max Wind Speed 8 mph    
Max Gust Speed -    
T = Trace of Precipitation, MM = Missing Value Source: Averaged Metar Reports

Daily Weather History Graph

Daily Weather History Graph

Search for Another Location

Airport or City:

Trip Planner

Search our weather history database for the weather conditions in past years. The results will help you decide how hot, cold, wet, or windy it might be!

Date:

Astronomy

Feb. 21, 2014 Rise Set
Actual Time 7:43 AM MST 6:09 PM MST
Civil Twilight 7:09 AM MST 6:42 PM MST
Nautical Twilight 6:31 AM MST 7:21 PM MST
Astronomical Twilight 5:52 AM MST 7:59 PM MST
Moon 12:50 AM MST (2/21) 10:25 AM MST (2/21)
Length of Visible Light 11h 33m
Length of Day
10h 25m
Waning Gibbous, 60% of the Moon is Illuminated
Feb 21
Waning Gibbous
Feb 22
Last Quarter
Mar 1
New
Mar 8
First Quarter
Mar 16
Full

Hourly Weather History & Observations

Time (MST) Temp. Windchill Dew Point Humidity Pressure Visibility Wind Dir Wind Speed Gust Speed Precip Events Conditions
12:00 AM 18.3 °F 11.5 °F 8.2 °F 65% 29.84 in - WSW 4.6 mph - N/A   Unknown
1:00 AM 17.8 °F 7.5 °F 7.0 °F 63% 29.86 in - SSW 8.1 mph - N/A   Unknown
2:00 AM 15.4 °F 8.1 °F 6.3 °F 67% 29.87 in - WSW 4.6 mph - N/A   Unknown
3:00 AM 14.0 °F 2.9 °F 7.7 °F 76% 29.89 in - SW 8.1 mph - N/A   Unknown
4:00 AM 11.8 °F 5.7 °F 4.3 °F 72% 29.92 in - SW 3.5 mph - N/A   Unknown
5:00 AM 8.1 °F - 2.1 °F 77% 29.96 in - WNW 1.2 mph - N/A   Unknown
6:00 AM 7.2 °F - 3.0 °F 83% 29.97 in - WNW 1.2 mph - N/A   Unknown
7:00 AM 8.1 °F 1.4 °F 2.8 °F 79% 29.98 in - WSW 3.5 mph - N/A   Unknown
8:00 AM 6.4 °F - 1.0 °F 78% 30.00 in - NNE 1.2 mph - N/A   Unknown
9:00 AM 9.0 °F - 2.8 °F 76% 30.01 in - West 1.2 mph - N/A   Unknown
10:00 AM 11.1 °F - 2.1 °F 67% 30.02 in - Calm Calm - N/A   Unknown
11:00 AM 13.6 °F - 2.5 °F 61% 30.03 in - North 2.3 mph - N/A   Unknown
12:00 PM 15.4 °F 6.8 °F 4.6 °F 62% 30.04 in - SW 5.8 mph - N/A   Unknown
1:00 PM 15.4 °F 6.8 °F 10.6 °F 81% 30.05 in - WSW 5.8 mph - N/A   Unknown
2:00 PM 17.2 °F - 11.5 °F 78% 30.06 in - SW 1.2 mph - N/A   Unknown
3:00 PM 20.3 °F - 11.7 °F 69% 30.07 in - Calm Calm - 0.01 in   Unknown
4:00 PM 18.7 °F - 12.9 °F 78% 30.09 in - Calm Calm - N/A   Unknown
5:00 PM 20.3 °F 15.4 °F 14.0 °F 77% 30.11 in - East 3.5 mph - N/A   Unknown
6:00 PM 17.1 °F 11.7 °F 15.1 °F 92% 30.13 in - NE 3.5 mph - 0.02 in   Unknown
7:00 PM 16.5 °F 9.4 °F 15.1 °F 94% 30.14 in - NNE 4.6 mph - 0.04 in   Unknown
8:00 PM 15.6 °F 5.9 °F 13.6 °F 92% 30.16 in - NNE 6.9 mph - 0.01 in   Unknown
9:00 PM 14.7 °F 5.9 °F 13.5 °F 95% 30.17 in - NE 5.8 mph - 0.04 in   Unknown
10:00 PM 14.2 °F 6.7 °F 12.4 °F 93% 30.17 in - NE 4.6 mph - 0.02 in   Unknown
11:00 PM 13.6 °F 7.7 °F 11.7 °F 92% 30.17 in - NE 3.5 mph - N/A   Unknown